Flag for Netherlands Weather past 2 weeks in Eindhoven, Netherlands

Now
63 °F

Passing clouds.


Feels Like: 63 °F
Forecast: 45 / 64 °F
Wind: 5 mph from Northwest

Location: Eindhoven Airport

Current Time: Sep 2, 2015 at 3:04:55 PM

Latest Report: Sep 2, 2015 at 2:25 PM


Visibility: N/A

Pressure: 30.01 "Hg

Humidity: 73%

Dew point: 54 °F

Location of EindhovenLocation

Historic Weather in Eindhoven — Graph

°F

Eindhoven temperature yesterday

Maximum temperature yesterday: 68 °F (at 3:55 PM)
Minimum temperature yesterday: 52 °F (at 11:25 PM)
Average temperature yesterday: 62 °F

Past Weeks' High & Low Weather Summary

 TemperatureHumidityPressure
High86 °F (Aug 31, 3:25 PM)100% (Aug 21, 12:55 AM)30.21 "Hg (Aug 21, 12:55 AM)
Low46 °F (Sep 2, 4:25 AM)34% (Aug 22, 2:55 PM)29.47 "Hg (Aug 24, 2:55 PM)
Average66 °F75%29.94 "Hg
* Reported Aug 18 1:03 PM — Sep 2 1:55 PM, Eindhoven, Weather by CustomWeather, © 2015

Note: Actual official high and low records may vary slightly from our data, if they occured in-between our weather recording intervals... More about our weather records

Advertising

Eindhoven weather history for previous 24 hours

 ConditionsComfort  
Time TempWeatherWind HumidityBarometerVisibility
1:55 PM
Wed, Sep 2
63 °FPassing clouds.7 mph68%30.01 "HgN/A
1:25 PM63 °FMostly cloudy.7 mph73%30.01 "HgN/A
12:55 PM59 °FOvercast.5 mph82%30.01 "HgN/A
12:25 PM55 °FCloudy.3 mph88%30.01 "HgN/A
11:55 AM55 °FDrizzle. Mostly cloudy.3 mph88%30.04 "HgN/A
11:25 AM54 °FRain. Broken clouds.2 mph94%30.04 "HgN/A
11:02 AM57 °FLight rain. More clouds than sun.10 mph82%30.04 "HgN/A
10:55 AM59 °FBroken clouds.10 mph82%30.04 "HgN/A
10:25 AM57 °FBroken clouds.7 mph94%30.04 "HgN/A
9:55 AM57 °FBroken clouds.5 mph94%30.01 "HgN/A
9:25 AM55 °FBroken clouds.3 mph94%30.01 "HgN/A
8:55 AM55 °FLight rain. Mostly cloudy.6 mph94%30.04 "Hg5 mi
8:25 AM55 °FSprinkles. Mostly cloudy.6 mph94%30.04 "Hg4 mi
7:55 AM54 °FLight rain. Mostly cloudy.3 mph100%30.04 "HgN/A
7:25 AM52 °FOvercast.2 mph100%30.01 "HgN/A
6:55 AM52 °FOvercast.3 mph100%30.04 "HgN/A
6:25 AM50 °FMostly cloudy.2 mph100%30.04 "HgN/A
5:55 AM48 °FOvercast.1 mph100%30.04 "HgN/A
5:25 AM48 °FOvercast.2 mph100%30.04 "HgN/A
4:55 AM48 °FCool.3 mph94%30.04 "HgN/A
4:25 AM46 °FPassing clouds.2 mph100%30.04 "HgN/A
3:55 AM48 °FCool.5 mph100%30.04 "HgN/A
3:25 AM48 °FCool.3 mph100%30.04 "HgN/A
2:55 AM50 °FCool.6 mph94%30.04 "HgN/A
2:25 AM48 °FCool.3 mph100%30.07 "HgN/A
1:55 AM50 °FCool.5 mph94%30.07 "HgN/A
1:25 AM50 °FCool.5 mph100%30.07 "HgN/A
12:55 AM50 °FCool.5 mph94%30.07 "HgN/A
11:25 PM
Tue, Sep 1
52 °FCool.2 mph100%30.04 "HgN/A
10:55 PM54 °FCool.6 mph94%30.04 "HgN/A
10:25 PM54 °FClear.5 mph88%30.04 "HgN/A
9:55 PM55 °FPassing clouds.5 mph88%30.04 "HgN/A
9:25 PM57 °FPassing clouds.3 mph82%30.04 "HgN/A
8:55 PM59 °FPartly sunny.6 mph77%30.04 "HgN/A
8:25 PM59 °FScattered clouds.5 mph77%30.01 "HgN/A
7:55 PM63 °FMild.6 mph68%30.01 "HgN/A
7:25 PM64 °FClear.7 mph64%30.01 "HgN/A
6:55 PM64 °FMild.8 mph64%29.98 "HgN/A
6:25 PM66 °FPassing clouds.9 mph64%29.98 "HgN/A
5:55 PM66 °FPassing clouds.13 mph60%29.98 "HgN/A
5:25 PM68 °FBroken clouds.12 mph60%29.98 "HgN/A
4:55 PM66 °FHigh level clouds.12 mph68%29.95 "HgN/A
4:25 PM64 °FPartly sunny.14 mph68%29.95 "HgN/A
3:55 PM68 °FBroken clouds.10 mph64%29.95 "HgN/A
3:25 PM66 °FPartly sunny.13 mph64%29.95 "HgN/A
Weather by CustomWeather, © 2015

See weather overviewHow to use our weather pages